Weather History for Agadir Al Massira, Morocco

Change the Weather History Date:

Monday, December 24, 2012

  Actual Average Record
Temperature  
Mean Temperature 66 °F -  
Max Temperature 87 °F - - ()
Min Temperature 46 °F - - ()
Cooling Degree Days 2    
Growing Degree Days 16 (Base 50)    
Moisture  
Dew Point 36 °F    
Average Humidity 35    
Maximum Humidity 67    
Minimum Humidity 9    
Precipitation  
Precipitation 0.00 in - - ()
Sea Level Pressure  
Sea Level Pressure 30.06 in    
Wind  
Wind Speed 9 mph ()    
Max Wind Speed 17 mph    
Max Gust Speed -    
Visibility 6.0 miles    
Events      
T = Trace of Precipitation, MM = Missing Value Source: Averaged Metar Reports

Daily Weather History Graph

Daily Weather History Graph

Search for Another Location

Airport:

Trip Planner

Search our weather history database for the weather conditions in past years. The results will help you decide how hot, cold, wet, or windy it might be!

Date:

Astronomy

Dec. 24, 2012 Rise Set
Actual Time 7:31 AM WET 5:43 PM WET
Civil Twilight 7:05 AM WET 6:09 PM WET
Nautical Twilight 6:35 AM WET 6:39 PM WET
Astronomical Twilight 6:05 AM WET 7:09 PM WET
Moon 2:56 PM WET (12/24) 4:03 AM WET (12/24)
Length of Visible Light 11h 04m
Length of Day
10h 11m
Waxing Gibbous, 87% of the Moon is Illuminated
Dec 24
Waxing Gibbous
Dec 28
Full
Jan 5
Last Quarter
Jan 11
New
Jan 18
First Quarter

Hourly Weather History & Observations

Time (WET) Temp. Dew Point Humidity Pressure Visibility Wind Dir Wind Speed Gust Speed Precip Events Conditions
12:00 AM 57 °F 36 °F 33% 30.14 in 6 mi ENE 9.2 mph - -  
12:00 AM 57.2 °F 35.6 °F 44% 30.12 in - ENE 9.2 mph - N/A   Unknown
1:00 AM - - N/A% 0.00 in - North - - N/A   Clear
2:00 AM 51.8 °F 35.6 °F 54% 30.12 in - ENE 8.1 mph - N/A   Clear
3:00 AM 53 °F 35 °F 39% 30.12 in 6 mi ENE 8.1 mph - -  
3:00 AM 51.8 °F 35.6 °F 54% 30.09 in - ENE 8.1 mph - N/A   Clear
4:00 AM 53.6 °F 33.8 °F 47% 30.09 in - ENE 9.2 mph - N/A   Unknown
5:00 AM 55.4 °F 33.8 °F 44% 30.09 in - NE 9.2 mph - N/A   Unknown
6:00 AM 56 °F 34 °F 31% 30.10 in - ENE 10.4 mph - -  
6:00 AM 57.2 °F 33.8 °F 41% 30.09 in - ENE 10.4 mph - N/A   Unknown
7:00 AM 55.4 °F 35.6 °F 47% 30.09 in - ENE 11.5 mph - N/A   Unknown
8:00 AM 55.4 °F 35.6 °F 47% 30.09 in - ENE 11.5 mph - N/A   Clear
9:00 AM 61 °F 36 °F 27% 30.12 in 6 mi NE 11.5 mph - -  
9:00 AM 60.8 °F 35.6 °F 39% 30.09 in - NE 11.5 mph - N/A   Clear
10:00 AM 68.0 °F 35.6 °F 30% 30.12 in - ENE 11.5 mph - N/A   Clear
11:00 AM 80.6 °F 35.6 °F 20% 30.09 in - ENE 17.3 mph - N/A   Clear
12:00 PM 82 °F 33 °F 9% 30.08 in 6 mi East 16.1 mph - -  
12:00 PM 82.4 °F 33.8 °F 17% 30.06 in - East 16.1 mph - N/A   Clear
1:00 PM 84.2 °F 33.8 °F 16% 30.04 in - ENE 10.4 mph - N/A   Clear
2:00 PM 84.2 °F 32.0 °F 15% 30.01 in - Variable 3.5 mph - N/A   Clear
3:00 PM 81 °F 35 °F 11% 29.99 in 6 mi West 12.7 mph - -  
3:00 PM 80.6 °F 35.6 °F 20% 29.98 in - West 12.7 mph - N/A   Clear
4:00 PM 77.0 °F 37.4 °F 24% 29.98 in - West 16.1 mph - N/A   Clear
5:00 PM 73.4 °F 37.4 °F 27% 29.98 in - West 9.2 mph - N/A   Clear
6:00 PM 70 °F 37 °F 19% 30.00 in 6 mi WSW 6.9 mph - -  
6:00 PM 69.8 °F 37.4 °F 31% 30.01 in - WSW 6.9 mph - N/A   Clear
7:00 PM 68.0 °F 37.4 °F 33% 30.01 in - SW 5.8 mph - N/A   Clear
8:00 PM 62.6 °F 41.0 °F 45% 30.04 in - South 6.9 mph - N/A   Clear
9:00 PM 60 °F 40 °F 37% 30.06 in 6 mi SSE 5.8 mph - -  
9:00 PM 60.8 °F 41.0 °F 48% 30.06 in - SSE 5.8 mph - N/A   Clear
10:00 PM 55.4 °F 41.0 °F 58% 30.06 in - SE 1.2 mph - N/A   Clear
11:00 PM 51.8 °F 41.0 °F 67% 30.09 in - East 4.6 mph - N/A   Clear